"read_dt","SO2 (ppb)","flags","PMT voltage (V)","lamp voltage (V)","lamp intensity (Hz)","internal temp (C)","react chamber temp (C)","sample flow (l/min)","pres (mmHg)","SO2 bkg (ppb)","SO2 coefficient"
2014-03-16 00:00:00,5654E-2,5C000490,-0724,1356,6950,027.0,045.3,0.137,754.2,01.17,0.508
2014-03-16 00:01:00,5634E-2,5C000490,-0724,1357,6915,027.0,045.3,0.137,754.2,01.17,0.508
2014-03-16 00:02:00,5630E-2,5C000490,-0724,1358,6995,027.0,045.3,0.137,754.3,01.17,0.508
2014-03-16 00:03:00,5608E-2,5C000490,-0724,1358,6973,027.0,045.3,0.137,754.3,01.17,0.508
2014-03-16 00:04:00,5642E-2,5C000490,-0724,1359,6926,027.0,045.3,0.137,754.3,01.17,0.508
2014-03-16 00:05:00,5627E-2,5C000490,-0724,1360,6939,027.0,045.3,0.137,754.3,01.17,0.508
2014-03-16 00:06:00,5643E-2,5C000490,-0724,1360,6949,027.1,045.3,0.137,754.3,01.17,0.508
2014-03-16 00:07:00,5596E-2,5C000490,-0724,1361,6971,027.1,045.3,0.137,754.2,01.17,0.508
2014-03-16 00:08:00,5603E-2,5C000490,-0724,1361,6964,027.1,045.3,0.137,754.2,01.17,0.508
2014-03-16 00:09:00,5553E-2,5C000490,-0724,1366,6140,027.1,045.3,0.137,754.3,01.17,0.508
2014-03-16 00:10:00,5361E-2,5C000490,-0724,1374,6160,027.1,045.3,0.137,754.3,01.17,0.508
2014-03-16 00:11:00,5390E-2,5C000490,-0724,1375,6153,027.1,045.3,0.137,754.3,01.17,0.508
2014-03-16 00:12:00,5396E-2,5C000490,-0724,1376,6096,027.1,045.3,0.137,754.3,01.17,0.508
2014-03-16 00:13:00,5354E-2,5C000490,-0724,1376,6067,027.1,045.3,0.137,754.2,01.17,0.508
2014-03-16 00:14:00,5302E-2,5C000490,-0724,1376,6093,027.1,045.3,0.137,754.3,01.17,0.508
2014-03-16 00:15:00,5344E-2,5C000490,-0724,1376,6053,027.1,045.3,0.137,754.3,01.17,0.508
2014-03-16 00:16:00,5350E-2,5C000490,-0724,1376,6087,027.1,045.3,0.137,754.3,01.17,0.508
2014-03-16 00:17:00,5392E-2,5C000490,-0724,1376,5987,027.1,045.3,0.137,754.3,01.17,0.508
2014-03-16 00:18:00,5372E-2,5C000490,-0724,1376,5943,027.1,045.3,0.137,754.3,01.17,0.508
2014-03-16 00:19:00,5389E-2,5C000490,-0724,1376,5951,027.1,045.3,0.137,754.2,01.17,0.508
2014-03-16 00:20:00,5282E-2,5C000490,-0724,1376,5979,027.1,045.3,0.136,754.2,01.17,0.508
2014-03-16 00:21:00,5374E-2,5C000490,-0724,1376,5948,027.1,045.3,0.137,754.3,01.17,0.508
2014-03-16 00:22:00,5309E-2,5C000490,-0724,1376,6022,027.1,045.3,0.136,754.2,01.17,0.508
2014-03-16 00:23:00,5309E-2,5C000490,-0724,1376,6017,027.1,045.3,0.137,754.3,01.17,0.508
2014-03-16 00:24:00,5311E-2,5C000490,-0724,1376,5929,027.1,045.3,0.137,754.2,01.17,0.508
2014-03-16 00:25:00,5297E-2,5C000490,-0724,1376,5954,027.2,045.3,0.137,754.2,01.17,0.508
2014-03-16 00:26:00,5289E-2,5C000490,-0724,1376,5878,027.2,045.3,0.137,754.3,01.17,0.508
2014-03-16 00:27:00,5220E-2,5C000490,-0724,1376,5938,027.2,045.3,0.136,754.3,01.17,0.508
2014-03-16 00:28:00,5208E-2,5C000490,-0724,1376,5993,027.2,045.3,0.137,754.2,01.17,0.508
2014-03-16 00:29:00,5209E-2,5C000490,-0724,1376,5950,027.2,045.3,0.136,754.2,01.17,0.508
2014-03-16 00:30:00,5224E-2,5C000490,-0724,1376,5936,027.2,045.3,0.137,754.3,01.17,0.508
2014-03-16 00:31:00,5279E-2,5C000490,-0724,1376,5940,027.2,045.3,0.136,754.2,01.17,0.508
2014-03-16 00:32:00,5253E-2,5C000490,-0724,1376,5851,027.2,045.3,0.136,754.3,01.17,0.508
2014-03-16 00:33:00,5236E-2,5C000490,-0724,1376,5890,027.2,045.3,0.136,754.3,01.17,0.508
2014-03-16 00:34:00,5240E-2,5C000490,-0724,1376,5832,027.2,045.3,0.136,754.2,01.17,0.508
2014-03-16 00:35:00,5262E-2,5C000490,-0724,1376,5881,027.2,045.3,0.136,754.2,01.17,0.508
2014-03-16 00:36:00,5264E-2,5C000490,-0724,1376,5914,027.2,045.3,0.136,754.1,01.17,0.508
2014-03-16 00:37:00,5281E-2,5C000490,-0724,1376,5765,027.2,045.3,0.136,754.1,01.17,0.508
2014-03-16 00:38:00,5219E-2,5C000490,-0724,1376,5812,027.2,045.3,0.136,754.2,01.17,0.508
2014-03-16 00:39:00,5282E-2,5C000490,-0724,1376,5849,027.3,045.3,0.136,754.2,01.17,0.508
2014-03-16 00:40:00,5228E-2,5C000490,-0724,1376,5758,027.2,045.3,0.136,754.2,01.17,0.508
2014-03-16 00:41:00,5228E-2,5C000490,-0724,1376,5774,027.3,045.3,0.136,754.1,01.17,0.508
2014-03-16 00:42:00,5224E-2,5C000490,-0724,1376,5823,027.2,045.3,0.136,754.1,01.17,0.508
2014-03-16 00:43:00,5204E-2,5C000490,-0724,1376,5822,027.3,045.3,0.136,754.2,01.17,0.508
2014-03-16 00:44:00,5264E-2,5C000490,-0724,1376,5789,027.3,045.3,0.136,754.2,01.17,0.508
2014-03-16 00:45:00,5224E-2,5C000490,-0724,1376,5788,027.3,045.3,0.136,754.2,01.17,0.508
2014-03-16 00:46:00,5224E-2,5C000490,-0724,1376,5740,027.3,045.3,0.136,754.1,01.17,0.508
2014-03-16 00:47:00,5266E-2,5C000490,-0724,1376,5723,027.3,045.3,0.136,754.1,01.17,0.508
2014-03-16 00:48:00,5283E-2,5C000490,-0724,1376,5625,027.3,045.3,0.136,754.1,01.17,0.508
2014-03-16 00:49:00,5226E-2,5C000490,-0724,1376,5734,027.3,045.3,0.136,754.1,01.17,0.508
2014-03-16 00:50:00,5240E-2,5C000490,-0724,1376,5729,027.3,045.3,0.136,754.2,01.17,0.508
2014-03-16 00:51:00,5245E-2,5C000490,-0724,1376,5705,027.3,045.3,0.136,754.2,01.17,0.508
2014-03-16 00:52:00,5218E-2,5C000490,-0724,1376,5696,027.3,045.3,0.136,754.1,01.17,0.508
2014-03-16 00:53:00,5288E-2,5C000490,-0724,1376,5687,027.3,045.3,0.136,754.1,01.17,0.508
2014-03-16 00:54:00,5314E-2,5C000490,-0724,1376,5598,027.3,045.3,0.136,754.1,01.17,0.508
2014-03-16 00:55:00,5271E-2,5C000490,-0724,1376,5596,027.4,045.3,0.136,754.1,01.17,0.508
2014-03-16 00:56:00,5277E-2,5C000490,-0724,1376,5588,027.4,045.3,0.136,754.1,01.17,0.508
2014-03-16 00:57:00,5279E-2,5C000490,-0724,1376,5633,027.4,045.3,0.136,754.1,01.17,0.508
2014-03-16 00:58:00,5244E-2,5C000490,-0724,1376,5639,027.4,045.3,0.136,754.1,01.17,0.508
2014-03-16 00:59:00,5220E-2,5C000490,-0724,1376,5596,027.4,045.3,0.136,754.1,01.17,0.508
2014-03-16 01:00:00,5240E-2,5C000490,-0724,1376,5612,027.4,045.3,0.136,754.0,01.17,0.508
2014-03-16 01:01:00,5250E-2,5C000490,-0724,1376,5593,027.4,045.3,0.136,754.1,01.17,0.508
2014-03-16 01:02:00,5248E-2,5C000490,-0724,1376,5579,027.4,045.3,0.136,754.1,01.17,0.508
2014-03-16 01:03:00,5293E-2,5C000490,-0724,1376,5559,027.4,045.3,0.136,754.1,01.17,0.508
2014-03-16 01:04:00,5293E-2,5C000490,-0724,1376,5580,027.4,045.3,0.135,754.1,01.17,0.508
2014-03-16 01:05:00,5260E-2,5C000490,-0724,1376,5576,027.4,045.3,0.136,754.1,01.17,0.508
2014-03-16 01:06:00,5214E-2,5C000490,-0724,1376,5557,027.4,045.3,0.136,754.0,01.17,0.508
2014-03-16 01:07:00,5252E-2,5C000490,-0724,1376,5532,027.5,045.3,0.135,754.0,01.17,0.508
2014-03-16 01:08:00,5296E-2,5C000490,-0724,1376,5569,027.5,045.3,0.136,754.0,01.17,0.508
2014-03-16 01:09:00,5243E-2,5C000490,-0724,1376,5562,027.5,045.3,0.135,754.0,01.17,0.508
2014-03-16 01:10:00,5288E-2,5C000490,-0724,1376,5617,027.5,045.3,0.135,754.0,01.17,0.508
2014-03-16 01:11:00,5265E-2,5C000490,-0724,1376,5584,027.5,045.3,0.135,754.1,01.17,0.508
2014-03-16 01:12:00,5236E-2,5C000490,-0724,1376,5543,027.5,045.3,0.135,754.0,01.17,0.508
2014-03-16 01:13:00,5249E-2,5C000490,-0724,1376,5461,027.5,045.3,0.135,754.0,01.17,0.508
2014-03-16 01:14:00,5317E-2,5C000490,-0724,1376,5481,027.5,045.3,0.135,754.0,01.17,0.508
2014-03-16 01:15:00,5275E-2,5C000490,-0724,1376,5580,027.5,045.3,0.135,754.0,01.17,0.508
2014-03-16 01:16:00,5277E-2,5C000490,-0724,1376,5552,027.5,045.3,0.135,754.0,01.17,0.508
2014-03-16 01:17:00,5220E-2,5C000490,-0724,1376,5470,027.5,045.3,0.135,754.0,01.17,0.508
2014-03-16 01:18:00,5267E-2,5C000490,-0724,1376,5556,027.5,045.3,0.135,754.0,01.17,0.508
2014-03-16 01:19:00,5320E-2,5C000490,-0724,1376,5521,027.5,045.3,0.135,754.0,01.17,0.508
2014-03-16 01:20:00,5286E-2,5C000490,-0724,1376,5499,027.5,045.3,0.135,754.0,01.17,0.508
2014-03-16 01:21:00,5284E-2,5C000490,-0724,1376,5499,027.5,045.3,0.135,754.1,01.17,0.508
2014-03-16 01:22:00,5237E-2,5C000490,-0724,1376,5494,027.5,045.3,0.135,754.0,01.17,0.508
2014-03-16 01:23:00,5246E-2,5C000490,-0724,1376,5460,027.5,045.3,0.135,754.0,01.17,0.508
2014-03-16 01:24:00,5258E-2,5C000490,-0724,1376,5493,027.5,045.3,0.135,754.0,01.17,0.508
2014-03-16 01:25:00,5312E-2,5C000490,-0724,1376,5399,027.6,045.3,0.135,754.0,01.17,0.508
2014-03-16 01:26:00,5229E-2,5C000490,-0724,1376,5482,027.6,045.3,0.135,754.0,01.17,0.508
2014-03-16 01:27:00,5303E-2,5C000490,-0724,1376,5500,027.6,045.3,0.135,753.9,01.17,0.508
2014-03-16 01:28:00,5369E-2,5C000490,-0724,1376,5468,027.6,045.3,0.135,753.9,01.17,0.508
2014-03-16 01:29:00,5241E-2,5C000490,-0724,1376,5467,027.6,045.3,0.135,754.0,01.17,0.508
2014-03-16 01:30:00,5268E-2,5C000490,-0724,1376,5443,027.6,045.3,0.135,753.9,01.17,0.508
2014-03-16 01:31:00,5265E-2,5C000490,-0724,1376,5503,027.6,045.3,0.135,753.9,01.17,0.508
2014-03-16 01:32:00,5267E-2,5C000490,-0724,1376,5482,027.6,045.3,0.135,754.0,01.17,0.508
2014-03-16 01:33:00,5274E-2,5C000490,-0724,1376,5477,027.6,045.3,0.135,754.0,01.17,0.508
2014-03-16 01:34:00,5302E-2,5C000490,-0724,1376,5395,027.6,045.3,0.135,753.9,01.17,0.508
2014-03-16 01:35:00,5284E-2,5C000490,-0724,1376,5415,027.6,045.3,0.135,754.0,01.17,0.508
2014-03-16 01:36:00,5272E-2,5C000490,-0724,1376,5406,027.6,045.3,0.135,754.0,01.17,0.508
2014-03-16 01:37:00,5299E-2,5C000490,-0724,1376,5399,027.6,045.3,0.135,754.0,01.17,0.508
2014-03-16 01:38:00,5310E-2,5C000490,-0724,1376,5409,027.6,045.3,0.135,753.9,01.17,0.508
2014-03-16 01:39:00,5311E-2,5C000490,-0724,1376,5452,027.7,045.3,0.135,753.9,01.17,0.508
2014-03-16 01:40:00,5321E-2,5C000490,-0724,1376,5476,027.7,045.3,0.135,753.9,01.17,0.508
2014-03-16 01:41:00,5326E-2,5C000490,-0724,1376,5447,027.6,045.3,0.135,754.0,01.17,0.508
2014-03-16 01:42:00,5280E-2,5C000490,-0724,1376,5397,027.7,045.3,0.135,753.9,01.17,0.508
2014-03-16 01:43:00,5236E-2,5C000490,-0724,1376,5409,027.7,045.3,0.135,754.0,01.17,0.508
2014-03-16 01:44:00,5356E-2,5C000490,-0724,1376,5415,027.7,045.3,0.135,754.0,01.17,0.508
2014-03-16 01:45:00,5349E-2,5C000490,-0724,1376,5402,027.7,045.3,0.134,754.0,01.17,0.508
2014-03-16 01:46:00,5307E-2,5C000490,-0724,1376,5339,027.7,045.3,0.134,754.0,01.17,0.508
2014-03-16 01:47:00,5268E-2,5C000490,-0724,1376,5370,027.7,045.3,0.135,754.0,01.17,0.508
2014-03-16 01:48:00,5339E-2,5C000490,-0724,1376,5355,027.7,045.3,0.134,753.9,01.17,0.508
2014-03-16 01:49:00,5294E-2,5C000490,-0724,1376,5390,027.7,045.3,0.134,753.9,01.17,0.508
2014-03-16 01:50:00,5223E-2,5C000490,-0724,1376,5356,027.7,045.3,0.134,753.9,01.17,0.508
2014-03-16 01:51:00,5268E-2,5C000490,-0724,1376,5344,027.7,045.3,0.134,753.9,01.17,0.508
2014-03-16 01:52:00,5393E-2,5C000490,-0724,1376,5373,027.7,045.3,0.134,753.9,01.17,0.508
2014-03-16 01:53:00,5665E-2,5C000490,-0724,1376,5320,027.7,045.3,0.134,753.9,01.17,0.508
2014-03-16 01:54:00,5600E-2,5C000490,-0724,1376,5223,027.7,045.3,0.134,753.9,01.17,0.508
2014-03-16 01:55:00,5602E-2,5C000490,-0724,1376,5214,027.7,045.3,0.134,754.0,01.17,0.508
2014-03-16 01:56:00,5551E-2,5C000490,-0724,1376,5270,027.8,045.3,0.134,753.9,01.17,0.508
2014-03-16 01:57:00,5615E-2,5C000490,-0724,1376,5296,027.8,045.3,0.134,753.9,01.17,0.508
2014-03-16 01:58:00,5641E-2,5C000490,-0724,1376,5350,027.8,045.3,0.134,753.9,01.17,0.508
2014-03-16 01:59:00,5649E-2,5C000490,-0724,1376,5317,027.8,045.3,0.134,753.9,01.17,0.508
2014-03-16 02:00:00,5640E-2,5C000490,-0724,1376,5294,027.8,045.3,0.134,753.9,01.17,0.508
2014-03-16 02:01:00,5658E-2,5C000490,-0724,1376,5252,027.8,045.3,0.134,753.9,01.17,0.508
2014-03-16 02:02:00,5663E-2,5C000490,-0724,1376,5280,027.8,045.3,0.134,753.9,01.17,0.508
2014-03-16 02:03:00,5673E-2,5C000490,-0724,1376,5299,027.8,045.3,0.134,753.9,01.17,0.508
2014-03-16 02:04:00,5667E-2,5C000490,-0724,1376,5296,027.8,045.3,0.134,753.8,01.17,0.508
2014-03-16 02:05:00,5649E-2,5C000490,-0724,1376,5272,027.8,045.3,0.134,753.8,01.17,0.508
2014-03-16 02:06:00,5597E-2,5C000490,-0724,1376,5247,027.8,045.3,0.134,753.8,01.17,0.508
2014-03-16 02:07:00,5666E-2,5C000490,-0724,1376,5221,027.8,045.3,0.134,753.8,01.17,0.508
2014-03-16 02:08:00,5610E-2,5C000490,-0724,1376,5174,027.8,045.3,0.134,753.8,01.17,0.508
2014-03-16 02:09:00,5620E-2,5C000490,-0724,1376,5169,027.8,045.3,0.134,753.8,01.17,0.508
2014-03-16 02:10:00,5631E-2,5C000490,-0724,1376,5205,027.8,045.3,0.134,753.8,01.17,0.508
2014-03-16 02:11:00,5655E-2,5C000490,-0724,1376,5249,027.8,045.3,0.134,753.9,01.17,0.508
2014-03-16 02:12:00,5659E-2,5C000490,-0724,1376,5169,027.8,045.3,0.134,753.8,01.17,0.508
2014-03-16 02:13:00,5585E-2,5C000490,-0724,1376,5222,027.8,045.3,0.134,753.8,01.17,0.508
2014-03-16 02:14:00,5672E-2,5C000490,-0724,1376,5175,027.8,045.3,0.134,753.9,01.17,0.508
2014-03-16 02:15:00,5658E-2,5C000490,-0724,1376,5264,027.8,045.3,0.134,753.8,01.17,0.508
2014-03-16 02:16:00,5664E-2,5C000490,-0724,1376,5218,027.8,045.3,0.134,753.8,01.17,0.508
2014-03-16 02:17:00,5770E-2,5C000490,-0724,1376,5144,027.9,045.3,0.134,753.8,01.17,0.508
2014-03-16 02:18:00,5705E-2,5C000490,-0724,1376,5137,027.9,045.3,0.134,753.8,01.17,0.508
2014-03-16 02:19:00,5688E-2,5C000490,-0724,1376,5216,027.9,045.3,0.134,753.8,01.17,0.508
2014-03-16 02:20:00,5712E-2,5C000490,-0724,1376,5170,027.9,045.3,0.134,753.9,01.17,0.508
2014-03-16 02:21:00,5787E-2,5C000490,-0724,1376,5146,027.9,045.3,0.134,753.8,01.17,0.508
2014-03-16 02:22:00,5746E-2,5C000490,-0724,1376,5193,027.9,045.3,0.134,753.8,01.17,0.508
2014-03-16 02:23:00,5758E-2,5C000490,-0724,1376,5157,027.9,045.3,0.134,753.8,01.17,0.508
2014-03-16 02:24:00,5686E-2,5C000490,-0724,1376,5181,027.9,045.3,0.134,753.8,01.17,0.508
2014-03-16 02:25:00,5700E-2,5C000490,-0724,1376,5160,027.9,045.3,0.134,753.8,01.17,0.508
2014-03-16 02:26:00,5674E-2,5C000490,-0724,1376,5176,027.9,045.3,0.134,753.8,01.17,0.508
2014-03-16 02:27:00,5752E-2,5C000490,-0724,1376,5242,027.9,045.3,0.134,753.8,01.17,0.508
2014-03-16 02:28:00,5756E-2,5C000490,-0724,1376,5159,027.9,045.3,0.134,753.8,01.17,0.508
2014-03-16 02:29:00,5737E-2,5C000490,-0724,1376,5176,027.9,045.3,0.134,753.8,01.17,0.508
2014-03-16 02:30:00,5736E-2,5C000490,-0724,1376,5174,027.9,045.3,0.134,753.8,01.17,0.508
2014-03-16 02:31:00,5743E-2,5C000490,-0724,1376,5168,027.9,045.3,0.134,753.9,01.17,0.508
2014-03-16 02:32:00,5826E-2,5C000490,-0724,1376,5143,027.9,045.3,0.134,753.8,01.17,0.508
2014-03-16 02:33:00,5850E-2,5C000490,-0724,1376,5165,027.9,045.3,0.134,753.7,01.17,0.508
2014-03-16 02:34:00,5860E-2,5C000490,-0724,1376,5095,027.9,045.3,0.134,753.7,01.17,0.508
2014-03-16 02:35:00,5828E-2,5C000490,-0724,1376,5122,028.0,045.3,0.134,753.8,01.17,0.508
2014-03-16 02:36:00,5846E-2,5C000490,-0724,1376,5109,028.0,045.3,0.134,753.8,01.17,0.508
2014-03-16 02:37:00,5804E-2,5C000490,-0724,1376,5123,027.9,045.3,0.134,753.8,01.17,0.508
2014-03-16 02:38:00,5847E-2,5C000490,-0724,1376,5155,028.0,045.3,0.134,753.8,01.17,0.508
2014-03-16 02:39:00,5783E-2,5C000490,-0724,1376,5120,027.9,045.3,0.134,753.7,01.17,0.508
2014-03-16 02:40:00,5831E-2,5C000490,-0724,1376,5168,027.9,045.3,0.134,753.8,01.17,0.508
2014-03-16 02:41:00,5794E-2,5C000490,-0724,1376,5076,027.9,045.3,0.134,753.8,01.17,0.508
2014-03-16 02:42:00,5840E-2,5C000490,-0724,1376,5156,028.0,045.3,0.134,753.8,01.17,0.508
2014-03-16 02:43:00,5840E-2,5C000490,-0724,1376,5139,028.0,045.3,0.134,753.7,01.17,0.508
2014-03-16 02:44:00,5816E-2,5C000490,-0724,1376,5074,028.0,045.3,0.133,753.7,01.17,0.508
2014-03-16 02:45:00,5809E-2,5C000490,-0724,1376,5090,028.0,045.3,0.133,753.7,01.17,0.508
2014-03-16 02:46:00,5801E-2,5C000490,-0724,1376,5116,028.0,045.3,0.133,753.7,01.17,0.508
2014-03-16 02:47:00,5818E-2,5C000490,-0724,1376,5091,028.0,045.3,0.133,753.7,01.17,0.508
2014-03-16 02:48:00,5815E-2,5C000490,-0724,1376,5148,028.0,045.3,0.133,753.7,01.17,0.508
2014-03-16 02:49:00,5853E-2,5C000490,-0724,1376,5092,028.0,045.3,0.133,753.7,01.17,0.508
2014-03-16 02:50:00,5843E-2,5C000490,-0724,1376,5095,028.0,045.3,0.133,753.7,01.17,0.508
2014-03-16 02:51:00,5817E-2,5C000490,-0724,1376,5082,028.0,045.3,0.133,753.7,01.17,0.508
2014-03-16 02:52:00,5840E-2,5C000490,-0724,1376,5386,028.1,045.3,0.133,753.8,01.17,0.508
2014-03-16 02:53:00,5850E-2,5C000490,-0724,1376,5321,028.1,045.3,0.133,753.7,01.17,0.508
2014-03-16 02:54:00,5945E-2,5C000490,-0724,1376,5388,028.1,045.3,0.133,753.7,01.17,0.508
2014-03-16 02:55:00,5937E-2,5C000490,-0724,1376,5391,028.1,045.3,0.133,753.7,01.17,0.508
2014-03-16 02:56:00,6032E-2,5C000490,-0724,1376,5349,028.1,045.3,0.133,753.7,01.17,0.508
2014-03-16 02:57:00,5940E-2,5C000490,-0724,1376,5392,028.1,045.3,0.133,753.7,01.17,0.508
2014-03-16 02:58:00,5972E-2,5C000490,-0724,1376,5365,028.1,045.3,0.133,753.7,01.17,0.508
2014-03-16 02:59:00,5955E-2,5C000490,-0724,1376,5420,028.1,045.3,0.133,753.8,01.17,0.508
2014-03-16 03:00:00,6007E-2,5C000490,-0724,1376,5320,028.1,045.3,0.133,753.8,01.17,0.508
2014-03-16 03:01:00,5939E-2,5C000490,-0724,1376,5338,028.1,045.3,0.133,753.7,01.17,0.508
2014-03-16 03:02:00,5982E-2,5C000490,-0724,1376,5874,028.1,045.3,0.133,753.7,01.17,0.508
2014-03-16 03:03:00,5399E-2,5C000490,-0724,1376,5930,028.1,045.3,0.133,753.7,01.17,0.508
2014-03-16 03:04:00,5339E-2,5C000490,-0724,1376,5819,028.1,045.3,0.133,753.8,01.17,0.508
2014-03-16 03:05:00,5380E-2,5C000490,-0724,1376,5888,028.1,045.3,0.133,753.8,01.17,0.508
2014-03-16 03:06:00,5327E-2,5C000490,-0724,1376,5821,028.1,045.3,0.133,753.8,01.17,0.508
2014-03-16 03:07:00,5340E-2,5C000490,-0724,1376,5831,028.2,045.3,0.133,753.8,01.17,0.508
2014-03-16 03:08:00,5324E-2,5C000490,-0724,1376,5894,028.2,045.3,0.133,753.8,01.17,0.508
2014-03-16 03:09:00,5373E-2,5C000490,-0724,1376,5779,028.1,045.3,0.133,753.8,01.17,0.508
2014-03-16 03:10:00,5319E-2,5C000490,-0724,1376,5794,028.2,045.3,0.133,753.9,01.17,0.508
2014-03-16 03:11:00,5352E-2,5C000490,-0724,1376,5709,028.2,045.3,0.133,753.9,01.17,0.508
2014-03-16 03:12:00,5289E-2,5C000490,-0724,1376,5743,028.2,045.3,0.133,753.9,01.17,0.508
2014-03-16 03:13:00,5267E-2,5C000490,-0724,1376,5760,028.2,045.3,0.133,753.9,01.17,0.508
2014-03-16 03:14:00,5340E-2,5C000490,-0724,1376,5744,028.2,045.3,0.133,753.8,01.17,0.508
2014-03-16 03:15:00,5297E-2,5C000490,-0724,1376,5739,028.2,045.3,0.133,753.8,01.17,0.508
2014-03-16 03:16:00,5351E-2,5C000490,-0724,1376,5740,028.2,045.3,0.133,753.9,01.17,0.508
2014-03-16 03:17:00,5313E-2,5C000490,-0724,1376,5750,028.2,045.3,0.133,753.9,01.17,0.508
2014-03-16 03:18:00,5328E-2,5C000490,-0724,1376,5758,028.2,045.3,0.133,753.9,01.17,0.508
2014-03-16 03:19:00,5303E-2,5C000490,-0724,1376,5770,028.2,045.3,0.132,753.9,01.17,0.508
2014-03-16 03:20:00,5254E-2,5C000490,-0724,1376,5645,028.2,045.3,0.132,753.8,01.17,0.508
2014-03-16 03:21:00,5331E-2,5C000490,-0724,1376,5886,028.3,045.3,0.132,753.9,01.17,0.508
2014-03-16 03:22:00,5356E-2,5C000490,-0724,1376,5884,028.3,045.3,0.133,753.9,01.17,0.508
2014-03-16 03:23:00,5305E-2,5C000490,-0724,1376,5854,028.3,045.3,0.132,753.9,01.17,0.508
2014-03-16 03:24:00,5248E-2,5C000490,-0724,1376,5869,028.3,045.3,0.132,753.8,01.17,0.508
2014-03-16 03:25:00,5260E-2,5C000490,-0724,1376,5830,028.3,045.3,0.132,753.9,01.17,0.508
2014-03-16 03:26:00,5313E-2,5C000490,-0724,1376,5832,028.3,045.3,0.132,753.9,01.17,0.508
2014-03-16 03:27:00,5260E-2,5C000490,-0724,1376,5816,028.3,045.3,0.132,753.9,01.17,0.508
2014-03-16 03:28:00,5253E-2,5C000490,-0724,1376,5830,028.3,045.3,0.132,753.9,01.17,0.508
2014-03-16 03:29:00,5279E-2,5C000490,-0724,1376,6019,028.3,045.3,0.132,753.9,01.17,0.508
2014-03-16 03:30:00,5288E-2,5C000490,-0724,1376,6036,028.3,045.3,0.132,753.8,01.17,0.508
2014-03-16 03:31:00,5280E-2,5C000490,-0724,1376,5970,028.3,045.3,0.132,753.9,01.17,0.508
2014-03-16 03:32:00,5250E-2,5C000490,-0724,1376,5998,028.3,045.3,0.132,753.9,01.17,0.508
2014-03-16 03:33:00,5261E-2,5C000490,-0724,1376,5998,028.4,045.3,0.132,753.8,01.17,0.508
2014-03-16 03:34:00,5204E-2,5C000490,-0724,1376,6004,028.4,045.3,0.132,753.9,01.17,0.508
2014-03-16 03:35:00,5247E-2,5C000490,-0724,1376,5927,028.4,045.3,0.132,753.9,01.17,0.508
2014-03-16 03:36:00,5224E-2,5C000490,-0724,1376,5886,028.4,045.3,0.132,753.9,01.17,0.508
2014-03-16 03:37:00,5238E-2,5C000490,-0724,1376,5962,028.4,045.3,0.132,753.9,01.17,0.508
2014-03-16 03:38:00,5282E-2,5C000490,-0724,1376,5937,028.4,045.3,0.132,753.8,01.17,0.508
2014-03-16 03:39:00,5229E-2,5C000490,-0724,1376,5939,028.4,045.3,0.132,753.9,01.17,0.508
2014-03-16 03:40:00,5218E-2,5C000490,-0724,1376,5914,028.4,045.3,0.132,753.9,01.17,0.508
2014-03-16 03:41:00,5231E-2,5C000490,-0724,1376,5862,028.4,045.3,0.132,754.0,01.17,0.508
2014-03-16 03:42:00,5249E-2,5C000490,-0724,1376,5866,028.4,045.3,0.132,753.9,01.17,0.508
2014-03-16 03:43:00,5272E-2,5C000490,-0724,1376,5839,028.4,045.3,0.132,753.8,01.17,0.508
2014-03-16 03:44:00,5210E-2,5C000490,-0724,1376,5787,028.4,045.3,0.132,753.8,01.17,0.508
2014-03-16 03:45:00,5196E-2,5C000490,-0724,1376,5807,028.4,045.3,0.132,753.9,01.17,0.508
2014-03-16 03:46:00,5252E-2,5C000490,-0724,1376,5835,028.4,045.3,0.132,753.9,01.17,0.508
2014-03-16 03:47:00,5227E-2,5C000490,-0724,1376,5873,028.4,045.4,0.132,753.9,01.17,0.508
2014-03-16 03:48:00,5252E-2,5C000490,-0724,1376,5873,028.5,045.3,0.132,753.9,01.17,0.508
2014-03-16 03:49:00,5234E-2,5C000490,-0724,1376,5822,028.5,045.3,0.132,753.9,01.17,0.508
2014-03-16 03:50:00,5208E-2,5C000490,-0724,1376,5814,028.5,045.3,0.132,753.8,01.17,0.508
2014-03-16 03:51:00,5198E-2,5C000490,-0724,1376,5763,028.5,045.3,0.132,753.9,01.17,0.508
2014-03-16 03:52:00,5171E-2,5C000490,-0724,1376,5792,028.5,045.3,0.132,753.8,01.17,0.508
2014-03-16 03:53:00,5261E-2,5C000490,-0724,1376,5780,028.5,045.3,0.132,753.9,01.17,0.508
2014-03-16 03:54:00,5264E-2,5C000490,-0724,1376,5775,028.5,045.3,0.132,753.9,01.17,0.508
2014-03-16 03:55:00,5206E-2,5C000490,-0724,1376,5808,028.5,045.3,0.132,753.8,01.17,0.508
2014-03-16 03:56:00,5171E-2,5C000490,-0724,1376,5739,028.6,045.3,0.131,753.9,01.17,0.508
2014-03-16 03:57:00,5245E-2,5C000490,-0724,1376,5698,028.5,045.3,0.131,753.9,01.17,0.508
2014-03-16 03:58:00,5208E-2,5C000490,-0724,1376,5783,028.5,045.3,0.131,753.8,01.17,0.508
2014-03-16 03:59:00,5211E-2,5C000490,-0724,1376,5761,028.5,045.3,0.131,753.9,01.17,0.508
2014-03-16 04:00:00,5212E-2,5C000490,-0724,1376,5723,028.5,045.3,0.132,753.8,01.17,0.508
2014-03-16 04:01:00,5191E-2,5C000490,-0724,1376,5768,028.5,045.3,0.131,753.8,01.17,0.508
2014-03-16 04:02:00,5219E-2,5C000490,-0724,1376,5730,028.5,045.3,0.131,753.9,01.17,0.508
2014-03-16 04:03:00,5246E-2,5C000490,-0724,1376,5768,028.6,045.3,0.131,753.9,01.17,0.508
2014-03-16 04:04:00,5226E-2,5C000490,-0724,1376,5691,028.6,045.4,0.131,753.9,01.17,0.508
2014-03-16 04:05:00,5167E-2,5C000490,-0724,1376,5681,028.6,045.3,0.131,753.8,01.17,0.508
2014-03-16 04:06:00,5201E-2,5C000490,-0724,1376,5700,028.6,045.3,0.131,753.8,01.17,0.508
2014-03-16 04:07:00,5180E-2,5C000490,-0724,1376,5726,028.6,045.3,0.131,753.8,01.17,0.508
2014-03-16 04:08:00,5196E-2,5C000490,-0724,1376,5694,028.6,045.3,0.131,753.8,01.17,0.508
2014-03-16 04:09:00,5247E-2,5C000490,-0724,1376,5713,028.6,045.3,0.131,753.9,01.17,0.508
2014-03-16 04:10:00,5241E-2,5C000490,-0724,1376,5685,028.6,045.3,0.131,753.9,01.17,0.508
2014-03-16 04:11:00,5210E-2,5C000490,-0724,1376,5546,028.6,045.3,0.131,753.7,01.17,0.508
2014-03-16 04:12:00,5211E-2,5C000490,-0724,1376,5663,028.6,045.3,0.131,753.8,01.17,0.508
2014-03-16 04:13:00,5217E-2,5C000490,-0724,1376,5607,028.6,045.3,0.131,753.8,01.17,0.508
2014-03-16 04:14:00,5190E-2,5C000490,-0724,1376,5634,028.6,045.3,0.131,753.8,01.17,0.508
2014-03-16 04:15:00,5201E-2,5C000490,-0724,1376,5598,028.7,045.3,0.131,753.9,01.17,0.508
2014-03-16 04:16:00,5215E-2,5C000490,-0724,1376,5593,028.7,045.3,0.131,753.8,01.17,0.508
2014-03-16 04:17:00,5208E-2,5C000490,-0724,1376,5574,028.6,045.3,0.131,753.9,01.17,0.508
2014-03-16 04:18:00,5204E-2,5C000490,-0724,1376,5540,028.7,045.3,0.131,753.8,01.17,0.508
2014-03-16 04:19:00,5176E-2,5C000490,-0724,1376,5600,028.7,045.3,0.131,753.8,01.17,0.508
2014-03-16 04:20:00,5151E-2,5C000490,-0724,1376,5478,028.7,045.3,0.131,753.9,01.17,0.508
2014-03-16 04:21:00,5193E-2,5C000490,-0724,1376,5646,028.7,045.4,0.131,753.9,01.17,0.508
2014-03-16 04:22:00,5240E-2,5C000490,-0724,1376,5594,028.7,045.3,0.131,753.8,01.17,0.508
2014-03-16 04:23:00,5215E-2,5C000490,-0724,1376,5518,028.7,045.3,0.131,753.9,01.17,0.508